This is the latest recevied weather packets stored in our database for station/object JS2WAD-13. If no packets are shown the sender has not sent any weather packets the latest 1 day(s).
| Time | Temp. | Humidity | Pressure | Rain* | Wind** | Luminosity | Snow |
|---|---|---|---|---|---|---|---|
| 1778051180 | 18.89° C | 79% | 909.5 hPa | 0 mm | - | 65 W/m² | - |
| 1778049080 | 18.89° C | 77% | 909.7 hPa | 0 mm | - | 113 W/m² | - |
| 1778048780 | 18.89° C | 78% | 909.8 hPa | 0 mm | - | 132 W/m² | - |
| 1778048180 | 18.89° C | 77% | 909.7 hPa | 0 mm | - | 95 W/m² | - |
| 1778044880 | 18.33° C | 79% | 910.2 hPa | 0 mm | - | 35 W/m² | - |
| 1778044280 | 18.33° C | 78% | 910.3 hPa | 0 mm | - | 33 W/m² | - |
| 1778043680 | 18.33° C | 78% | 910.1 hPa | 0 mm | - | 44 W/m² | - |
| 1778042780 | 18.33° C | 78% | 910.3 hPa | 0 mm | - | 44 W/m² | - |
| 1778042480 | 18.33° C | 78% | 910.5 hPa | 0 mm | - | 40 W/m² | - |
| 1778040981 | 18.33° C | 78% | 910.7 hPa | 0 mm | - | 69 W/m² | - |
| 1778040681 | 18.33° C | 78% | 910.8 hPa | 0 mm | - | 65 W/m² | - |
| 1778040381 | 18.33° C | 79% | 910.8 hPa | 0 mm | - | 67 W/m² | - |
| 1778040081 | 18.33° C | 79% | 910.8 hPa | 0 mm | - | 72 W/m² | - |
| 1778039781 | 18.33° C | 79% | 910.8 hPa | 0 mm | - | 69 W/m² | - |
| 1778039481 | 17.78° C | 80% | 911 hPa | 0 mm | - | 67 W/m² | - |
| 1778039181 | 17.78° C | 81% | 911.2 hPa | 0 mm | - | 46 W/m² | - |
| 1778038881 | 18.33° C | 86% | 911.3 hPa | 0 mm | - | 47 W/m² | - |
| 1778038581 | 17.78° C | 87% | 911.2 hPa | 0 mm | - | 58 W/m² | - |
| 1778038281 | 17.78° C | 82% | 911.4 hPa | 0 mm | - | 58 W/m² | - |
| 1778037981 | 17.78° C | 86% | 911.3 hPa | 0 mm | - | 60 W/m² | - |
| 1778037681 | 17.78° C | 86% | 911.3 hPa | 0 mm | - | 70 W/m² | - |
| 1778037381 | 17.78° C | 85% | 911.5 hPa | 0 mm | - | 63 W/m² | - |
| 1778037081 | 17.78° C | 87% | 911.5 hPa | 0 mm | - | 58 W/m² | - |
| 1778036781 | 17.78° C | 85% | 911.6 hPa | 0 mm | - | 56 W/m² | - |
| 1778036481 | 17.78° C | 85% | 911.5 hPa | 0 mm | - | 84 W/m² | - |
* Rain latest hour (hover to see other rain measurements)
** Current wind speed in m/s (hover to see current wind gust speed)